Zurück zum Katalog

FENGYUN 1C DEB

AktivPO
NORAD 30287·DEBRIS·🇨🇳 China

Gestartet May 10, 1999 von Taiyuan Satellite Launch Center

Loading…

Nächste Überflüge (nächste 24 Stunden)

TLE

AktuellSource: Space-Track

Epoche: Sep 14, 2026, 18:49 UTC

1 30287U 99025YY  26257.78449433  .00001153  00000-0  75636-3 0  9999
2 30287  98.6177 268.8703 0411386 357.9097 177.4100 13.69327145976358

Verfolge FENGYUN 1C DEB in Echtzeit mit AllMySat

Download on the App Store